This demonstration page uses our WeatherBlox Daily Observations layout. Learn more.

Left ArrowRight Arrow

39.95238, -75.16362

Hourly Observations for May 16, 2018

Temp ( °F °C ) Dew Point ( °F °C ) Humidity (%) Winds ( mph kmh ) Pressure ( in mb ) Visibility ( mi km ) Precip ( " mm )
12:54 am 00:54 Cloudy 67 19.4 66 18.9 97 97 SW 3 6 30.01 1016 8 13 0.00 0.00
1:50 am 01:50 Cloudy with Mist and Fog 68 20 66 19 94 94 NW 5 7 30.00 1016 6 10 0.00 0.00
1:54 am 01:54 Cloudy with Mist and Fog 68 20 66 18.9 93 93 NW 5 7 30.00 1016 5 8 0.00 0.00
2:54 am 02:54 Cloudy with Mist and Fog 67 19.4 66 18.9 97 97 SSW 5 7 29.99 1016 6 10 0.00 0.00
3:02 am 03:02 Cloudy with Mist and Fog 67 19.4 66 18.9 97 97 SW 3 6 30.00 1016 6 10 0.00 0.00
3:54 am 03:54 Cloudy with Mist and Fog 67 19.4 64 17.8 91 91 NE 8 13 29.99 1016 6 10 0.00 0.00
4:36 am 04:36 Cloudy 66 18.9 63 17.2 90 90 NE 6 9 30.00 1016 10 16 0.00 0.00
4:54 am 04:54 Cloudy 66 18.9 62 16.7 87 87 NE 7 11 30.01 1016 10 16 0.00 0.00
5:20 am 05:20 Cloudy with Light Rain 65 18.3 60 15.6 84 84 ENE 9 15 30.03 1017 10 16 0.00 0.03
5:54 am 05:54 Cloudy with Light Rain 64 17.8 59 15 84 84 NE 9 15 30.03 1017 10 16 0.00 0.03
6:54 am 06:54 Cloudy with Light Rain 63 17.2 61 16.1 93 93 NE 8 13 30.04 1017 8 13 0.01 0.25
7:54 am 07:54 Cloudy with Light Rain 63 17.2 61 16.1 93 93 ENE 7 11 30.06 1018 7 11 0.01 0.25
7:59 am 07:59 Cloudy with Light Rain 63 17.2 61 16.1 93 93 ENE 9 15 30.06 1018 5 8 0.00 0.03
8:10 am 08:10 Cloudy with Light Rain 63 17.2 61 16.1 93 93 ENE 9 15 30.06 1018 5 8 0.01 0.25
8:24 am 08:24 Cloudy with Light Rain 63 17.2 62 16.7 97 97 ENE 13 20 30.06 1018 4 6 0.01 0.25
8:38 am 08:38 Cloudy with Light Rain 63 17.2 62 16.7 97 97 ENE 10 17 30.06 1018 5 8 0.02 0.51
8:54 am 08:54 Cloudy with Light Rain 63 17.2 62 16.7 97 97 ENE 9 15 30.06 1018 5 8 0.03 0.76
9:03 am 09:03 Cloudy with Light Rain 63 17.2 62 16.7 97 97 ENE 7 11 30.06 1018 4 6 0.01 0.25
9:13 am 09:13 Cloudy with Light Rain 63 17.2 62 16.7 97 97 ENE 8 13 30.06 1018 5 8 0.02 0.51
9:37 am 09:37 Cloudy with Light Rain 63 17.2 62 16.7 97 97 ENE 9 15 30.06 1018 8 13 0.02 0.51
9:54 am 09:54 Cloudy with Light Rain 64 17.8 62 16.7 93 93 ENE 10 17 30.06 1018 9 14 0.02 0.51
10:54 am 10:54 Cloudy with Light Rain 65 18.3 63 17.2 93 93 ENE 10 17 30.08 1019 10 16 0.00 0.03
11:46 am 11:46 Cloudy with Light Rain 66 18.9 63 17.2 90 90 E 8 13 30.09 1019 10 16 0.00 0.03
11:54 am 11:54 Cloudy with Light Rain 66 18.9 63 17.2 90 90 ENE 8 13 30.08 1019 10 16 0.00 0.03
12:54 pm 12:54 Cloudy with Light Rain 65 18.3 63 17.2 93 93 ENE 7 11 30.07 1018 8 13 0.00 0.03
1:54 pm 13:54 Cloudy with Light Rain 65 18.3 63 17.2 93 93 E 9 15 30.06 1018 10 16 0.00 0.03
2:54 pm 14:54 Cloudy with Light Rain 65 18.3 63 17.2 93 93 ENE 8 13 30.05 1018 9 14 0.01 0.25
3:54 pm 15:54 Cloudy with Light Rain 65 18.3 63 17.2 93 93 ENE 8 13 30.04 1017 9 14 0.01 0.25
4:54 pm 16:54 Cloudy with Light Rain 65 18.3 64 17.8 97 97 ENE 8 13 30.03 1017 9 14 0.00 0.03
5:54 pm 17:54 Cloudy with Light Rain 64 17.8 63 17.2 96 96 ENE 9 15 30.04 1017 8 13 0.01 0.25
6:48 pm 18:48 Cloudy with Light Rain 63 17 63 17 100 100 NE 8 13 30.03 1017 6 10 0.03 0.76
6:54 pm 18:54 Cloudy with Light Rain 63 17.2 62 16.7 97 97 ENE 9 15 30.03 1017 6 10 0.03 0.76
7:54 pm 19:54 Cloudy with Light Rain 62 16.7 61 16.1 96 96 NE 9 15 30.04 1017 5 8 0.03 0.76
8:54 pm 20:54 Cloudy with Light Rain 61 16.1 60 15.6 97 97 NE 9 15 30.03 1017 6 10 0.03 0.76
9:54 pm 21:54 Mostly Cloudy with Light Rain 60 15.6 59 15 96 96 NE 10 17 30.03 1017 6 10 0.03 0.76
10:54 pm 22:54 Cloudy with Light Rain 59 15 58 14.4 96 96 NE 8 13 30.02 1017 6 10 0.02 0.51
11:54 pm 23:54 Cloudy with Mist and Fog 59 15 58 14.4 96 96 NE 9 15 30.01 1016 6 10 0.01 0.25

Powered by AerisWeather